Regional Weather Roundup
Issued by NWS

Home | Current Version | Previous Version | Text Only | Print | Product List | Glossary On
Versions: 1 2 3 4 5 6 7 8 9 10 11 12 13 14 15 16 17 18 19 20 21 22 23 24 25 26 27 28 29 30 31 32 33 34 35 36 37 38 39 40 41 42 43 44 45 46 47 48 49 50
000
ASUS42 KFFC 221503
RWRGA
WEATHER ROUNDUP FOR GEORGIA
NATIONAL WEATHER SERVICE PEACHTREE CITY GA
1100 AM EDT FRI AUG 22 2014

NOTE: "FAIR" INDICATES FEW OR NO CLOUDS BELOW 12,000 FEET WITH NO
SIGNIFICANT WEATHER AND/OR OBSTRUCTIONS TO VISIBILITY.

* = USE WITH CAUTION. THE STATIONS MARKED WITH AN ASTERISK MAY NOT
REPORT WEATHER SUCH AS PRECIPITATION, FOG, OR THUNDER AND ARE NOT
QUALITY CONTROLLED BY NWS.

THE REMARK "TC" DENOTES TEMPERATURE READING IN DEGREES CELSIUS.

GAZ001>058-221600-
NORTH GEORGIA

CITY           SKY/WX    TMP DP  RH WIND       PRES   REMARKS
ATLANTA        MOSUNNY   87  73  62 NW8       30.14S HX  94
ATHENS         SUNNY     89  71  55 NW12      30.11S HX  95
CHAMBLEE       SUNNY     86  71  60 NW9       30.14S HX  91
PEACHTREE CITY SUNNY     85  74  69 NW6       30.14S HX  92
ROME           SUNNY     86  74  67 S3        30.13S HX  94
WEST ATLANTA   SUNNY     86  73  65 N6        30.13S HX  93
GAINESVILLE    SUNNY     85  71  63 W8        30.16S HX  90
CARTERSVILLE   SUNNY     84  72  67 VRB3      30.15R


CITY           SKY/WX    TMP DP  RH WIND       PRES   REMARKS
DALTON*        MOSUNNY   82  73  74 CALM      30.14S
LAWRENCEVILLE* SUNNY     86  70  58 W10       30.14R HX  90
MARIETTA       PTSUNNY   87  73  64 NW8       30.15S HX  94
KENNESAW*      MOSUNNY   82  72  69 NW9       30.16R
$$

GAZ059>098-102>109-221600-
CENTRAL GEORGIA

CITY           SKY/WX    TMP DP  RH WIND       PRES   REMARKS
AUGUSTA-BUSH   SUNNY     92  71  50 N8        30.06S HX  98
AUGUSTA-DANIEL SUNNY     91  72  53 NW9       30.09R HX  98
COLUMBUS       SUNNY     89  72  56 N6        30.12R HX  96
MACON          SUNNY     88  74  63 W3        30.11S HX  96
ROBINS AFB     SUNNY     89  74  61 NW10      30.10S HX  99


CITY           SKY/WX    TMP DP  RH WIND       PRES   REMARKS
LAGRANGE*      SUNNY     91  78  66 N6        30.14S HX 105
SYLVANIA*      SUNNY     92  76  60 N7        30.08S HX 103
MILLEDGEVILLE* SUNNY     88  75  66 W5        30.10F HX  97
$$

GAZ099>101-110>166-221600-
SOUTH GEORGIA

CITY           SKY/WX    TMP DP  RH WIND       PRES   REMARKS
SAVANNAH       MOSUNNY   93  73  52 N6        30.06S HX 102
VALDOSTA       SUNNY     89  70  53 VRB5      30.10R HX  94
ALMA           SUNNY     90  73  57 NW7       30.09R HX  98
ST SIMONS      SUNNY     90  74  59 VRB7      30.06R HX  99
FT STEWART     SUNNY     93  72  51 NW6       30.06R HX 100
ALBANY         SUNNY     87  75  67 VRB3      30.13R HX  96
HUNTER AFB     SUNNY     92  74  54 NW7       30.04S HX 101
MOODY AFB      SUNNY     87  72  59 VRB5      30.10R HX  94
BRUNSWICK      SUNNY     91  72  52 NW6       30.07S HX  98


CITY           SKY/WX    TMP DP  RH WIND       PRES   REMARKS
BAINBRIDGE*    SUNNY     95  81  63 W6        30.11S HX 115
MOULTRIE*      SUNNY     88  72  58 NW5       30.12S HX  94
VIDALIA*         N/A     90  73  58 W6        30.09S HX  98
WAYCROSS*      SUNNY     91  77  63 NE5       30.08S HX 105
DOUGLAS*       SUNNY     90  72  55 NW7       30.11S HX  96
$$



USA.gov is the U.S. government's official web portal to all federal, state and local government web resources and services.